Location: Dark Ridge Observatory
(32.8036°N, 105.4750°W)
Time: 04:32:03
(UTC-06:00)

Envisat - Visible Passes

Search period start: 23 June 2018 00:00
Search period end: 03 July 2018 00:00
Orbit: 764 x 766 km, 98.2° (Epoch: 22 June)

Date Brightness Start Highest point End Pass type
(mag) Time Alt. Az. Time Alt. Az. Time Alt. Az.
23 Jun 4.0 20:47:31 10° S 20:52:23 48° W 20:57:17 10° NNW visible
24 Jun 6.0 21:54:54 10° W 21:55:04 10° W 21:55:14 10° W visible
25 Jun 5.0 21:13:52 10° SSW 21:18:03 26° W 21:22:15 10° NW visible
26 Jun 3.5 20:36:12 10° S 20:41:12 64° WSW 20:46:15 10° NNW visible
27 Jun 5.7 21:41:18 10° WSW 21:43:48 14° W 21:46:19 10° WNW visible
28 Jun 4.6 21:02:18 10° SSW 21:06:50 33° W 21:11:25 10° NNW visible
30 Jun 5.5 21:29:09 10° SW 21:32:33 18° W 21:35:58 10° NW visible
01 Jul 4.2 20:50:51 10° S 20:55:38 43° W 21:00:28 10° NNW visible
